Location: Arcadia
(34.1397°N, 118.0353°W)
Time: 20:07:12
(UTC+00:00)

NOSS 3-2 (A) - Pass Details

Date: 08 September 2024
Orbit: 700 x 1505 km, 63.4° (Epoch: 09 October)

Event Time Altitude Azimuth Distance (km) Brightness Sun altitude
Exits shadow 12:35:00 13° 225° (SW) 2,024 4.7 -12.2°
Maximum altitude 12:39:25 59° 304° (NW) 887 3.1 -11.3°
Drops below altitude 10° 12:45:02 10° 24° (NNE) 2,518 6.2 -10.2°
Sets 12:47:47 0° 28° (NNE) 3,578 7.1 -9.6°
